Muskegon, MI

10:13 AM EST on November 20, 2019 (GMT -0500)
Muskegon County

Weather History for KMKG - September, 2019

Change the Weather History Date:

Wednesday, September 11, 2019

  Actual Average Record
Temperature  
Mean Temperature 72 °F 64 °F  
Max Temperature 84 °F 73 °F 88 °F (1952)
Min Temperature 61 °F 55 °F 34 °F (1943)
Degree Days  
Heating Degree Days 0 3  
Month to date heating degree days 26  
Since 1 July heating degree days 56  
Cooling Degree Days 8 2  
Month to date cooling degree days 33  
Year to date cooling degree days 540  
Growing Degree Days 22 (Base 50)    
Moisture  
Dew Point 65 °F    
Average Humidity 85    
Maximum Humidity 94    
Minimum Humidity 62    
Precipitation  
Precipitation 0.24 in 0.13 in 4.33 in (1986)
Month to date precipitation 1.36  
Year to date precipitation 21.94  
Snow  
Snow 0.00 in 0.00 in - ()
Month to date snowfall 0.0  
Since 1 July snowfall 0.0  
Since 1 September snowfall 0.0  
Snow Depth -    
Sea Level Pressure  
Sea Level Pressure 30.08 in    
Wind  
Wind Speed 2 mph (SSW)    
Max Wind Speed 18 mph    
Max Gust Speed 26 mph    
Visibility 5 miles    
Events Fog , Rain , Thunderstorm    
T = Trace of Precipitation, MM = Missing Value Source: NWS Daily Summary

Daily Weather History Graph

Daily Weather History Graph

Search for Another Location

Airport or City:

Astronomy

Sep. 11, 2019 Rise Set
Actual Time 7:19 AM EDT 8:02 PM EDT
Civil Twilight 6:51 AM EDT 8:31 PM EDT
Nautical Twilight 6:17 AM EDT 9:05 PM EDT
Astronomical Twilight 5:41 AM EDT 9:40 PM EDT
Moon 7:19 PM EDT (9/11) 4:35 AM EDT (9/11)
Length of Visible Light 13h 40m
Length of Day
12h 42m
Waxing Gibbous, 94% of the Moon is Illuminated
Sep 11
Waxing Gibbous
Sep 14
Full
Sep 21
Last Quarter
Sep 28
New
Oct 5
First Quarter

Hourly Weather History & Observations

Time (EDT) Temp. Heat Index Dew Point Humidity Pressure Visibility Wind Dir Wind Speed Gust Speed Precip Events Conditions
12:55 AM 66.9 °F - 63.0 °F 87% 30.09 in 6.0 mi Calm Calm - N/A   Clear
1:55 AM 66.0 °F - 63.0 °F 90% 30.10 in 7.0 mi Calm Calm - N/A   Clear
2:49 AM 66.2 °F - 62.6 °F 88% 30.11 in 1.8 mi Calm Calm - N/A   Clear
2:55 AM 66.0 °F - 63.0 °F 90% 30.11 in 0.5 mi Calm Calm - N/A Fog Fog
2:59 AM 66.0 °F - 63.0 °F 90% 30.11 in 0.2 mi Calm Calm - N/A Fog Fog
3:07 AM 66.0 °F - 63.0 °F 90% 30.11 in 0.8 mi Calm Calm - N/A   Mist
3:09 AM 64.9 °F - 63.0 °F 93% 30.11 in 2.0 mi Calm Calm - N/A   Clear
3:17 AM 64.4 °F - 62.6 °F 94% 30.10 in 3.0 mi Calm Calm - N/A   Clear
3:22 AM 64.9 °F - 63.0 °F 93% 30.11 in 1.8 mi Calm Calm - N/A   Clear
3:27 AM 64.9 °F - 62.1 °F 90% 30.11 in 0.8 mi Calm Calm - N/A   Mist
3:46 AM 64.0 °F - 62.1 °F 93% 30.10 in 1.2 mi Calm Calm - N/A   Scattered Clouds
3:51 AM 64.4 °F - 62.6 °F 94% 30.10 in 0.8 mi Calm Calm - N/A   Mist
3:55 AM 64.0 °F - 62.1 °F 93% 30.09 in 0.5 mi Calm Calm - N/A Fog Fog
4:19 AM 64.0 °F - 61.0 °F 90% 30.10 in 1.0 mi SE 3.5 mph - N/A   Mist
4:21 AM 64.0 °F - 61.0 °F 90% 30.10 in 2.5 mi SE 3.5 mph - N/A   Scattered Clouds
4:34 AM 64.0 °F - 61.0 °F 90% 30.10 in 1.8 mi Calm Calm - N/A   Partly Cloudy
4:37 AM 64.0 °F - 61.0 °F 90% 30.10 in 3.0 mi Calm Calm - N/A   Partly Cloudy
4:55 AM 63.0 °F - 61.0 °F 93% 30.10 in 6.0 mi Calm Calm - N/A   Clear
5:55 AM 64.0 °F - 61.0 °F 90% 30.10 in 5.0 mi Calm Calm - N/A   Clear
6:11 AM 63.0 °F - 61.0 °F 93% 30.11 in 1.5 mi Calm Calm - N/A   Clear
6:20 AM 63.0 °F - 61.0 °F 93% 30.10 in 0.8 mi East 3.5 mph - N/A   Clear
6:40 AM 63.0 °F - 60.1 °F 90% 30.10 in 2.0 mi Calm Calm - N/A   Clear
6:55 AM 63.0 °F - 60.1 °F 90% 30.10 in 2.0 mi Calm Calm - N/A   Partly Cloudy
7:18 AM 63.0 °F - 60.1 °F 90% 30.12 in 5.0 mi Calm Calm - N/A   Partly Cloudy
7:55 AM 64.9 °F - 62.1 °F 90% 30.12 in 5.0 mi East 3.5 mph - N/A   Scattered Clouds
8:55 AM 70.0 °F - 66.0 °F 87% 30.11 in 7.0 mi Calm Calm - N/A   Scattered Clouds
9:55 AM 75.9 °F - 68.0 °F 76% 30.11 in 10.0 mi South 5.8 mph - N/A   Mostly Cloudy
10:55 AM 79.0 °F - 70.0 °F 74% 30.10 in 9.0 mi South 8.1 mph - N/A   Mostly Cloudy
11:55 AM 80.1 °F 83.2 °F 70.0 °F 71% 30.10 in 9.0 mi SSW 9.2 mph - N/A   Mostly Cloudy
12:55 PM 77.0 °F - 70.0 °F 79% 30.09 in 6.0 mi SSW 9.2 mph - N/A   Haze
1:55 PM 81.0 °F 84.4 °F 70.0 °F 69% 30.07 in 6.0 mi SSW 12.7 mph - N/A   Haze
2:55 PM 82.0 °F 86.3 °F 71.1 °F 69% 30.04 in 7.0 mi South 12.7 mph - N/A   Mostly Cloudy
3:55 PM 82.9 °F 87.5 °F 71.1 °F 67% 30.04 in 9.0 mi SSW 18.4 mph 26.5 mph N/A   Mostly Cloudy
4:12 PM 79.0 °F - 70.0 °F 74% 30.04 in 9.0 mi SSW 12.7 mph 23.0 mph N/A Thunderstorm Thunderstorm
4:55 PM 84.9 °F 90.1 °F 71.1 °F 63% 30.00 in 10.0 mi South 15.0 mph - N/A Thunderstorm Thunderstorm
5:55 PM 75.0 °F - 70.0 °F 84% 30.01 in 4.0 mi WNW 9.2 mph 19.6 mph 0.02 in Rain , Thunderstorm Light Thunderstorms and Rain
6:27 PM 75.9 °F - 70.0 °F 82% 30.03 in 6.0 mi West 4.6 mph - 0.00 in   Mostly Cloudy
6:53 PM 75.2 °F - 69.8 °F 83% 30.02 in 6.0 mi Calm Calm - 0.00 in Thunderstorm Overcast
6:55 PM 75.9 °F - 71.1 °F 85% 30.02 in 6.0 mi Calm Calm - 0.00 in Thunderstorm Overcast
7:19 PM 73.0 °F - 69.1 °F 87% 30.05 in 2.0 mi WNW 8.1 mph 23.0 mph 0.12 in Rain , Thunderstorm Thunderstorms and Rain
7:40 PM 73.0 °F - 66.9 °F 81% 30.04 in 6.0 mi WNW 4.6 mph - 0.17 in Rain , Thunderstorm Thunderstorms and Rain
7:55 PM 72.0 °F - 66.9 °F 84% 30.02 in 4.0 mi WNW 4.6 mph - 0.20 in Rain , Thunderstorm Thunderstorms and Rain
8:55 PM 71.1 °F - 66.9 °F 87% 30.02 in 9.0 mi South 3.5 mph - 0.04 in Rain , Thunderstorm Light Thunderstorms and Rain
9:55 PM 72.0 °F - 66.9 °F 84% 30.03 in 10.0 mi NNE 3.5 mph - 0.07 in Thunderstorm Thunderstorm
10:13 PM 71.1 °F - 66.9 °F 87% 30.05 in 10.0 mi North 5.8 mph - N/A   Overcast
10:55 PM 70.0 °F - 66.9 °F 90% 30.04 in 10.0 mi SSW 3.5 mph - 0.00 in   Mostly Cloudy
11:32 PM 70.0 °F - 66.9 °F 90% 30.06 in 10.0 mi Calm Calm - N/A   Mostly Cloudy
11:42 PM 69.1 °F - 66.9 °F 93% 30.07 in 10.0 mi WSW 3.5 mph - N/A   Overcast
11:55 PM 70.0 °F - 66.9 °F 90% 30.06 in 10.0 mi WSW 4.6 mph - 0.00 in Rain Light Rain